FW2027 Weather Reports


Display with metric or nautical units.
time (UTC)temp
F
wind
direction
speed
MPH
gust
MPH
rain 1hr
in
rain 24hr
in
rain mn
in
humidity
%
barometer
mb
20260906163034 77 221 8.0 16.0 0.00 0.02 0.02 51 1013.5
20260906161534 78 178 10.0 17.0 0.00 0.02 0.02 51 1013.7
20260906160032 77 179 6.0 11.0 0.00 0.02 0.02 57 1013.8
20260906154531 76 149 6.0 11.0 0.00 0.02 0.02 56 1014.0
20260906153029 75 174 8.0 16.0 0.00 0.02 0.02 56 1014.2
20260906151526 76 168 6.0 12.0 0.00 0.02 0.02 58 1014.4
20260906150028 77 152 7.0 18.0 0.00 0.02 0.02 55 1014.6
20260906144521 76 144 5.0 9.0 0.00 0.02 0.02 60 1015.2
20260906143017 76 208 5.0 9.0 0.00 0.02 0.02 63 1015.2
20260906141522 74 226 2.0 8.0 0.00 0.02 0.02 70 1015.5
20260906140106 74 216 3.0 6.0 0.00 0.02 0.02 71 1015.5
20260906134602 73 163 4.0 7.0 0.00 0.02 0.02 72 1015.6
20260906133056 72 124 1.0 7.0 0.00 0.02 0.02 74 1016.0
20260906131551 71 137 3.0 11.0 0.00 0.02 0.02 74 1016.3
20260906124548 71 156 2.0 8.0 0.00 0.02 0.02 74 1016.8
20260906123041 69 134 2.0 4.0 0.00 0.02 0.02 79 1017.0
20260906121540 68 190 3.0 7.0 0.00 0.02 0.02 76 1017.0
20260906120039 68 144 2.0 7.0 0.00 0.02 0.02 77 1017.0
20260906114540 68 167 5.0 8.0 0.00 0.02 0.02 77 1017.0
20260906113040 67 203 6.0 11.0 0.00 0.02 0.02 76 1017.4